Location: Bishop�s Knoyle
(51.0728°N, 2.1714°W)
Time: 03:03:44
(UTC+00:00)

ISS - Pass Details

Date: 28 September 2021
Orbit: 417 x 423 km, 51.6° (Epoch: 28 October)

Event Time Altitude Azimuth Distance (km) Brightness Sun altitude
Rises 18:58:00 0° 278° (W) 2,366 2.3 -11.0°
Reaches altitude 10° 19:00:06 10° 279° (W) 1,502 0.6 -11.3°
Maximum altitude 19:03:28 87° 7° (N) 426 -3.8 -11.9°
Enters shadow 19:05:35 21° 98° (E) 998 -2.5 -12.2°
